| time (UTC) | temp F | wind direction | speed MPH | gust MPH | rain 1hr in | rain 24hr in | rain mn in | humidity % | barometer mb |
| 20260505170002 | 48 | 111 | 9.0 | 18.0 | 0.00 | 0.10 | 0.10 | 74 | 1004.0 |
| 20260505164507 | 47 | 167 | 11.0 | 20.0 | 0.00 | 0.10 | 0.10 | 74 | 1004.0 |
| 20260505163011 | 47 | 157 | 11.0 | 24.0 | 0.00 | 0.10 | 0.10 | 75 | 1004.1 |
| 20260505161520 | 48 | 171 | 10.0 | 27.0 | 0.00 | 0.10 | 0.10 | 74 | 1003.9 |
| 20260505153051 | 48 | 168 | 10.0 | 24.0 | 0.00 | 0.10 | 0.10 | 69 | 1003.6 |
| 20260505151553 | 48 | 163 | 11.0 | 20.0 | 0.00 | 0.10 | 0.10 | 69 | 1003.4 |
| 20260505140126 | 49 | 143 | 9.0 | 18.0 | 0.00 | 0.10 | 0.10 | 67 | 1002.6 |
| 20260505130117 | 49 | 201 | 4.0 | 12.0 | 0.00 | 0.10 | 0.10 | 80 | 1001.9 |
| 20260505124605 | 48 | 200 | 4.0 | 13.0 | 0.00 | 0.10 | 0.10 | 81 | 1001.7 |
| 20260505123101 | 47 | 233 | 1.0 | 5.0 | 0.00 | 0.10 | 0.10 | 83 | 1001.5 |
| 20260505121557 | 47 | 242 | 3.0 | 8.0 | 0.00 | 0.10 | 0.10 | 81 | 1001.5 |
| 20260505120113 | 47 | 254 | 4.0 | 8.0 | 0.02 | 0.10 | 0.10 | 81 | 1001.4 |
| 20260505114603 | 47 | 270 | 6.0 | 14.0 | 0.04 | 0.10 | 0.10 | 81 | 1001.3 |
| 20260505113103 | 48 | 258 | 11.0 | 19.0 | 0.08 | 0.10 | 0.10 | 81 | 1001.3 |
| 20260505111602 | 48 | 232 | 11.0 | 15.0 | 0.10 | 0.10 | 0.10 | 84 | 1001.4 |
| 20260505110110 | 48 | 237 | 9.0 | 14.0 | 0.07 | 0.07 | 0.07 | 83 | 1001.6 |
| 20260505101607 | 50 | 234 | 2.0 | 5.0 | 0.00 | 0.00 | 0.00 | 74 | 1001.5 |
| 20260505100114 | 50 | 287 | 0.0 | 6.0 | 0.00 | 0.00 | 0.00 | 77 | 1001.7 |
| 20260505094622 | 49 | 269 | 3.0 | 7.0 | 0.00 | 0.00 | 0.00 | 78 | 1001.6 |
| 20260505093004 | 49 | 267 | 3.0 | 6.0 | 0.00 | 0.00 | 0.00 | 78 | 1001.6 |
| 20260505091507 | 50 | 267 | 3.0 | 6.0 | 0.00 | 0.00 | 0.00 | 76 | 1001.6 |
| 20260505090010 | 51 | 265 | 1.0 | 6.0 | 0.00 | 0.00 | 0.00 | 72 | 1001.7 |
| 20260505084522 | 51 | 296 | 1.0 | 9.0 | 0.00 | 0.00 | 0.00 | 71 | 1001.9 |
| 20260505083020 | 52 | 229 | 2.0 | 12.0 | 0.00 | 0.00 | 0.00 | 66 | 1002.0 |
| 20260505081515 | 52 | 200 | 2.0 | 11.0 | 0.00 | 0.00 | 0.00 | 64 | 1002.0 |
| 20260505080020 | 53 | 162 | 6.0 | 14.0 | 0.00 | 0.00 | 0.00 | 62 | 1001.9 |
| 20260505074514 | 53 | 157 | 8.0 | 15.0 | 0.00 | 0.00 | 0.00 | 60 | 1001.8 |
| 20260505073042 | 53 | 184 | 9.0 | 16.0 | 0.00 | 0.00 | 0.00 | 58 | 1001.9 |
| 20260505071510 | 54 | 205 | 9.0 | 23.0 | 0.00 | 0.00 | 0.00 | 56 | 1001.7 |
| 20260505070003 | 53 | 189 | 12.0 | 26.0 | 0.00 | 0.00 | 0.00 | 58 | 1001.7 |
| 20260505064625 | 53 | 143 | 11.0 | 19.0 | 0.00 | 0.00 | 0.00 | 59 | 1001.7 |
| 20260505063006 | 53 | 179 | 11.0 | 24.0 | 0.00 | 0.00 | 0.00 | 60 | 1001.6 |
| 20260505061510 | 53 | 213 | 19.0 | 28.0 | 0.00 | 0.00 | 0.00 | 60 | 1001.6 |
| 20260505060008 | 53 | 207 | 15.0 | 30.0 | 0.00 | 0.00 | 0.00 | 60 | 1001.6 |
| 20260505054513 | 54 | 163 | 17.0 | 33.0 | 0.00 | 0.00 | 0.00 | 59 | 1001.6 |
| 20260505053016 | 55 | 222 | 15.0 | 28.0 | 0.00 | 0.00 | 0.00 | 57 | 1001.4 |
| 20260505051523 | 54 | 200 | 14.0 | 26.0 | 0.00 | 0.00 | 0.00 | 58 | 1001.3 |
| 20260505041559 | 56 | 203 | 10.0 | 16.0 | 0.00 | 0.00 | 0.00 | 50 | 1000.6 |
| 20260505040059 | 55 | 193 | 5.0 | 10.0 | 0.00 | 0.00 | 0.00 | 54 | 1000.4 |
| 20260505034550 | 55 | 214 | 1.0 | 8.0 | 0.00 | 0.00 | 0.00 | 53 | 1000.3 |
| 20260505033022 | 57 | 214 | 1.0 | 9.0 | 0.00 | 0.00 | 0.00 | 51 | 1000.1 |
| 20260505031543 | 58 | 168 | 3.0 | 14.0 | 0.00 | 0.00 | 0.00 | 48 | 1000.0 |
| 20260505030042 | 58 | 194 | 7.0 | 18.0 | 0.00 | 0.00 | 0.00 | 46 | 999.8 |
| 20260505024556 | 59 | 216 | 9.0 | 15.0 | 0.00 | 0.00 | 0.00 | 45 | 999.6 |
| 20260505023048 | 60 | 221 | 9.0 | 14.0 | 0.00 | 0.00 | 0.00 | 44 | 999.5 |
| 20260505021555 | 61 | 173 | 7.0 | 15.0 | 0.00 | 0.00 | 0.00 | 43 | 999.3 |
| 20260505020051 | 62 | 144 | 8.0 | 19.0 | 0.00 | 0.00 | 0.00 | 40 | 999.3 |
| 20260505014607 | 64 | 188 | 0.0 | 2.0 | 0.00 | 0.00 | 0.00 | 37 | 999.3 |
| 20260505013059 | 64 | 207 | 0.0 | 4.0 | 0.00 | 0.00 | 0.00 | 36 | 999.4 |
| 20260505011608 | 65 | 96 | 0.0 | 0.0 | 0.00 | 0.00 | 0.00 | 37 | 999.5 |
| 20260505010055 | 65 | 90 | 0.0 | 4.0 | 0.00 | 0.00 | 0.00 | 37 | 999.7 |
| 20260505004554 | 64 | 100 | 0.0 | 6.0 | 0.00 | 0.00 | 0.00 | 37 | 999.9 |
| 20260505003042 | 64 | 71 | 3.0 | 11.0 | 0.00 | 0.00 | 0.00 | 37 | 999.8 |
| 20260505001518 | 65 | 86 | 5.0 | 11.0 | 0.00 | 0.00 | 0.00 | 36 | 999.9 |
| 20260505000050 | 65 | 94 | 6.0 | 12.0 | 0.00 | 0.00 | 0.00 | 35 | 999.9 |
| 20260504234548 | 66 | 115 | 1.0 | 11.0 | 0.00 | 0.00 | 0.00 | 33 | 1000.0 |
| 20260504233105 | 66 | 135 | 1.0 | 10.0 | 0.00 | 0.00 | 0.00 | 35 | 1000.3 |
| 20260504231601 | 66 | 113 | 6.0 | 12.0 | 0.00 | 0.00 | 0.00 | 33 | 1000.3 |
| 20260504230105 | 67 | 103 | 4.0 | 9.0 | 0.00 | 0.00 | 0.00 | 33 | 1000.0 |
| 20260504224614 | 67 | 288 | 5.0 | 13.0 | 0.00 | 0.00 | 0.00 | 30 | 1000.1 |
| 20260504223135 | 65 | 275 | 7.0 | 16.0 | 0.00 | 0.00 | 0.00 | 33 | 1000.0 |
| 20260504221623 | 64 | 271 | 11.0 | 20.0 | 0.00 | 0.00 | 0.00 | 35 | 1000.0 |
| 20260504220010 | 63 | 270 | 17.0 | 26.0 | 0.00 | 0.00 | 0.00 | 37 | 1000.1 |
| 20260504214514 | 62 | 285 | 16.0 | 27.0 | 0.00 | 0.00 | 0.00 | 39 | 1000.3 |
| 20260504213049 | 62 | 304 | 14.0 | 25.0 | 0.00 | 0.00 | 0.00 | 38 | 1000.3 |
| 20260504211540 | 64 | 283 | 18.0 | 26.0 | 0.00 | 0.00 | 0.00 | 34 | 1000.4 |
| 20260504210049 | 65 | 261 | 9.0 | 19.0 | 0.00 | 0.00 | 0.00 | 30 | 1000.6 |
| 20260504204553 | 66 | 265 | 10.0 | 18.0 | 0.00 | 0.00 | 0.00 | 28 | 1000.6 |
| 20260504203109 | 66 | 246 | 9.0 | 16.0 | 0.00 | 0.00 | 0.00 | 30 | 1000.6 |
| 20260504201606 | 67 | 239 | 9.0 | 15.0 | 0.00 | 0.00 | 0.00 | 32 | 1000.7 |
| 20260504200126 | 68 | 271 | 4.0 | 8.0 | 0.00 | 0.00 | 0.00 | 31 | 1000.7 |
| 20260504194612 | 68 | 179 | 1.0 | 10.0 | 0.00 | 0.00 | 0.00 | 32 | 1000.8 |
| 20260504193116 | 69 | 212 | 2.0 | 11.0 | 0.00 | 0.00 | 0.00 | 30 | 1001.0 |
| 20260504191608 | 70 | 205 | 2.0 | 14.0 | 0.00 | 0.00 | 0.00 | 28 | 1001.0 |
| 20260504190105 | 70 | 144 | 2.0 | 13.0 | 0.00 | 0.00 | 0.00 | 29 | 1001.3 |
| 20260504184609 | 68 | 241 | 7.0 | 12.0 | 0.00 | 0.00 | 0.00 | 29 | 1001.5 |
| 20260504183116 | 67 | 165 | 7.0 | 16.0 | 0.00 | 0.00 | 0.00 | 33 | 1001.4 |
| 20260504181616 | 67 | 144 | 6.0 | 13.0 | 0.00 | 0.00 | 0.00 | 35 | 1001.7 |
| 20260504180108 | 68 | 200 | 5.0 | 15.0 | 0.00 | 0.00 | 0.00 | 33 | 1001.7 |
| 20260504174619 | 69 | 138 | 10.0 | 16.0 | 0.00 | 0.00 | 0.00 | 33 | 1001.8 |
| 20260504173051 | 68 | 187 | 7.0 | 20.0 | 0.00 | 0.00 | 0.00 | 34 | 1001.9 |
| 20260504171527 | 68 | 128 | 11.0 | 16.0 | 0.00 | 0.00 | 0.00 | 34 | 1002.0 |